Location: Newark
(52.4787°S, 179.0532°W)
Time: 13:51:33
(UTC+00:00)

Transit 2A Rocket - Pass Details

Date: 21 November 2019
Orbit: 594 x 909 km, 66.7° (Epoch: 07 December)

Event Time Altitude Azimuth Distance (km) Brightness Sun altitude
Rises 03:54:10 0° 223° (SW) 3,564 8.9 31.9°
Reaches altitude 10° 03:56:53 10° 215° (SW) 2,628 8.2 31.5°
Maximum altitude 04:02:42 41° 145° (SE) 1,305 6.2 30.6°
Drops below altitude 10° 04:08:21 10° 75° (ENE) 2,553 7.3 29.8°
Sets 04:10:56 0° 68° (ENE) 3,453 7.9 29.4°
